Location: Cerezo de Arriba
(41.2389°N, 3.5585°W)
Time: 04:28:56
(UTC+00:00)

Cosmos 1697 Rocket - Pass Details

Date: 19 May 2025
Orbit: 830 x 844 km, 71.0° (Epoch: 23 June)

Event Time Altitude Azimuth Distance (km) Brightness Sun altitude
Rises 21:18:26 0° 339° (NNW) 3,404 7.2 -16.9°
Reaches altitude 10° 21:20:56 10° 343° (NNW) 2,468 6.1 -17.2°
Maximum altitude 21:26:31 60° 63° (ENE) 961 2.9 -17.9°
Enters shadow 21:29:07 31° 131° (SE) 1,425 3.3 -18.2°
